Back to catalog

STARLINK-37116

AliveCommunicationsSSO
NORAD 68213·PAYLOAD·🇺🇸 United States

Launched Mar 17, 2026 from Vandenberg Space Force Base

Loading…

Next Passes (next 24 hours)

TLE

FreshSource: CelesTrak SupGP

Epoch: Sep 14, 2026, 20:59 UTC

1 68213C 26053G   26257.87479167 -.00023296  00000+0 -72353-3 0  2570
2 68213  97.2845 131.6905 0001797  91.2601  88.7026 15.33434406    10

Track STARLINK-37116 in real time with AllMySat

Download on the App Store